QPF
0.03 0.03 0.02 0.03 0.03 0.03 0.03 0.04 0.03 0.02 0.02 0.01 0.02 0.03 0.04 0.03 0.02 0.01 0.00 0.00 0.00 0.00 0.01 0.01 0.01 0.01 0.01 0.01 0.01 0.01 0.01 0.02 0.02 0.02 0.02 0.03 0.04 0.04 0.07 0.09 0.09 0.11 0.10
0.02 0.02 0.03 0.03 0.03 0.03 0.03 0.03 0.03 0.03 0.02 0.01 0.02 0.04 0.05 0.03 0.01 0.01 0.00 0.00 0.00 0.00 0.00 0.00 0.00 0.01 0.01 0.01 0.01 0.01 0.01 0.01 0.01 0.01 0.02 0.03 0.04 0.04 0.05 0.09 0.11 0.14 0.13
0.03 0.03 0.03 0.02 0.02 0.02 0.02 0.02 0.03 0.03 0.02 0.02 0.02 0.02 0.02 0.02 0.02 0.02 0.01 0.01 0.00 0.01 0.01 0.00 0.00 0.01 0.01 0.01 0.01 0.01 0.01 0.00 0.00 0.01 0.02 0.03 0.06 0.05 0.05 0.07 0.10 0.13 0.14
0.02 0.03 0.03 0.02 0.02 0.02 0.03 0.02 0.02 0.02 0.02 0.02 0.02 0.02 0.03 0.03 0.02 0.02 0.02 0.01 0.02 0.02 0.01 0.01 0.01 0.01 0.01 0.02 0.01 0.01 0.01 0.01 0.00 0.01 0.02 0.03 0.04 0.03 0.04 0.06 0.09 0.11 0.12
0.02 0.02 0.03 0.03 0.02 0.02 0.03 0.03 0.03 0.02 0.02 0.03 0.03 0.03 0.04 0.03 0.03 0.03 0.03 0.03 0.03 0.02 0.01 0.01 0.01 0.01 0.02 0.02 0.01 0.01 0.01 0.01 0.01 0.01 0.02 0.03 0.04 0.03 0.03 0.04 0.07 0.07 0.09
0.02 0.02 0.03 0.04 0.03 0.02 0.03 0.03 0.03 0.02 0.02 0.02 0.02 0.02 0.03 0.03 0.04 0.05 0.04 0.04 0.03 0.03 0.02 0.01 0.01 0.01 0.01 0.01 0.02 0.03 0.03 0.02 0.02 0.01 0.02 0.03 0.04 0.03 0.02 0.04 0.05 0.05 0.06
0.01 0.02 0.03 0.04 0.04 0.04 0.04 0.04 0.04 0.03 0.02 0.02 0.02 0.02 0.02 0.02 0.04 0.06 0.05 0.04 0.03 0.02 0.02 0.01 0.02 0.02 0.02 0.01 0.02 0.03 0.03 0.04 0.04 0.03 0.03 0.05 0.05 0.06 0.04 0.03 0.04 0.04 0.04
0.02 0.02 0.03 0.03 0.03 0.04 0.05 0.05 0.05 0.03 0.02 0.02 0.02 0.01 0.01 0.02 0.03 0.04 0.04 0.03 0.03 0.02 0.02 0.02 0.02 0.02 0.03 0.02 0.02 0.02 0.03 0.04 0.05 0.04 0.05 0.06 0.07 0.08 0.07 0.04 0.03 0.03 0.04
0.03 0.03 0.04 0.05 0.04 0.04 0.05 0.04 0.04 0.03 0.02 0.03 0.03 0.02 0.02 0.02 0.03 0.03 0.03 0.02 0.02 0.01 0.01 0.02 0.02 0.02 0.03 0.04 0.03 0.03 0.02 0.03 0.04 0.06 0.06 0.06 0.08 0.09 0.11 0.07 0.03 0.04 0.04
0.03 0.04 0.04 0.04 0.04 0.04 0.04 0.05 0.07 0.06 0.05 0.04 0.04 0.03 0.03 0.03 0.03 0.03 0.02 0.01 0.01 0.01 0.01 0.01 0.02 0.02 0.03 0.03 0.02 0.02 0.02 0.03 0.04 0.05 0.05 0.05 0.06 0.09 0.11 0.09 0.06 0.04 0.04
0.02 0.02 0.03 0.03 0.03 0.04 0.04 0.05 0.05 0.06 0.07 0.07 0.05 0.04 0.03 0.04 0.03 0.02 0.02 0.01 0.01 0.01 0.01 0.01 0.01 0.02 0.02 0.02 0.02 0.01 0.02 0.03 0.03 0.03 0.04 0.04 0.05 0.08 0.10 0.09 0.08 0.06 0.03
0.03 0.03 0.03 0.02 0.02 0.03 0.04 0.04 0.04 0.04 0.05 0.06 0.06 0.05 0.04 0.04 0.03 0.03 0.03 0.02 0.02 0.01 0.01 0.01 0.01 0.02 0.02 0.02 0.02 0.02 0.03 0.03 0.02 0.02 0.02 0.03 0.04 0.06 0.08 0.06 0.06 0.06 0.05
0.04 0.04 0.03 0.03 0.02 0.02 0.03 0.04 0.03 0.03 0.03 0.03 0.02 0.03 0.04 0.04 0.04 0.04 0.04 0.04 0.03 0.02 0.02 0.02 0.03 0.03 0.03 0.02 0.02 0.02 0.03 0.03 0.03 0.02 0.02 0.02 0.03 0.04 0.04 0.04 0.04 0.04 0.04
0.03 0.03 0.03 0.03 0.03 0.03 0.03 0.03 0.03 0.02 0.02 0.02 0.01 0.02 0.02 0.03 0.04 0.04 0.04 0.04 0.04 0.04 0.04 0.04 0.04 0.04 0.04 0.04 0.03 0.04 0.04 0.05 0.04 0.02 0.02 0.02 0.03 0.04 0.04 0.04 0.04 0.04 0.03
0.03 0.03 0.04 0.04 0.04 0.04 0.02 0.02 0.02 0.02 0.02 0.02 0.01 0.01 0.01 0.01 0.01 0.02 0.03 0.03 0.03 0.03 0.03 0.04 0.04 0.04 0.04 0.04 0.04 0.05 0.05 0.04 0.03 0.03 0.03 0.03 0.03 0.04 0.05 0.05 0.04 0.04 0.04
0.02 0.03 0.03 0.03 0.02 0.02 0.01 0.01 0.01 0.01 0.01 0.01 0.01 0.01 0.01 0.01 0.01 0.01 0.01 0.02 0.02 0.02 0.02 0.03 0.04 0.04 0.03 0.03 0.04 0.05 0.04 0.03 0.03 0.04 0.04 0.04 0.04 0.03 0.03 0.04 0.04 0.04 0.04
0.03 0.04 0.04 0.04 0.03 0.02 0.02 0.01 0.01 0.01 0.01 0.01 0.01 0.01 0.01 0.01 0.01 0.01 0.01 0.01 0.01 0.02 0.02 0.02 0.03 0.03 0.04 0.05 0.05 0.05 0.03 0.03 0.03 0.04 0.05 0.06 0.06 0.05 0.04 0.04 0.04 0.05 0.05
0.02 0.03 0.04 0.03 0.03 0.02 0.02 0.01 0.01 0.01 0.01 0.01 0.01 0.01 0.01 0.01 0.01 0.01 0.01 0.01 0.01 0.01 0.02 0.02 0.02 0.03 0.05 0.06 0.05 0.04 0.03 0.03 0.03 0.03 0.04 0.05 0.05 0.05 0.05 0.05 0.05 0.05 0.05
0.03 0.03 0.03 0.03 0.03 0.03 0.02 0.02 0.03 0.02 0.02 0.01 0.01 0.01 0.01 0.01 0.01 0.01 0.01 0.01 0.01 0.01 0.01 0.02 0.03 0.04 0.05 0.05 0.04 0.03 0.03 0.03 0.03 0.04 0.04 0.04 0.04 0.04 0.03 0.04 0.04 0.04 0.04
0.02 0.03 0.03 0.03 0.03 0.02 0.02 0.03 0.04 0.03 0.03 0.03 0.02 0.02 0.01 0.01 0.01 0.01 0.00 0.01 0.01 0.01 0.01 0.02 0.02 0.03 0.04 0.04 0.04 0.03 0.04 0.04 0.04 0.03 0.03 0.03 0.03 0.02 0.02 0.02 0.02 0.03 0.04
0.01 0.01 0.02 0.02 0.03 0.03 0.03 0.02 0.02 0.02 0.03 0.03 0.03 0.03 0.02 0.01 0.01 0.01 0.01 0.01 0.01 0.01 0.01 0.01 0.02 0.02 0.03 0.03 0.02 0.03 0.03 0.03 0.03 0.03 0.03 0.02 0.01 0.01 0.01 0.01 0.01 0.01 0.02
0.01 0.01 0.01 0.01 0.02 0.03 0.03 0.03 0.03 0.03 0.03 0.03 0.03 0.02 0.02 0.02 0.02 0.02 0.02 0.02 0.01 0.01 0.01 0.01 0.02 0.02 0.02 0.01 0.01 0.01 0.01 0.02 0.02 0.02 0.02 0.01 0.01 0.01 0.01 0.01 0.01 0.01 0.01
0.01 0.01 0.01 0.01 0.01 0.02 0.02 0.02 0.03 0.03 0.03 0.03 0.03 0.03 0.02 0.02 0.02 0.02 0.01 0.01 0.01 0.01 0.02 0.02 0.03 0.02 0.01 0.01 0.01 0.01 0.01 0.01 0.01 0.02 0.02 0.02 0.01 0.01 0.01 0.01 0.01 0.01 0.01
0.02 0.02 0.02 0.02 0.02 0.02 0.02 0.02 0.02 0.02 0.03 0.03 0.03 0.03 0.02 0.02 0.03 0.02 0.02 0.01 0.01 0.01 0.02 0.02 0.02 0.01 0.01 0.01 0.00 0.00 0.00 0.01 0.01 0.01 0.01 0.01 0.01 0.01 0.01 0.01 0.01 0.01 0.01
0.02 0.02 0.02 0.02 0.02 0.02 0.01 0.01 0.01 0.02 0.02 0.02 0.02 0.02 0.02 0.03 0.03 0.02 0.01 0.01 0.01 0.01 0.01 0.01 0.01 0.01 0.01 0.01 0.01 0.00 0.01 0.01 0.00 0.01 0.01 0.01 0.01 0.01 0.01 0.01 0.01 0.01 0.01
0.03 0.03 0.02 0.02 0.02 0.02 0.02 0.02 0.01 0.01 0.01 0.01 0.01 0.01 0.01 0.01 0.02 0.02 0.02 0.01 0.01 0.01 0.01 0.01 0.01 0.00 0.01 0.01 0.01 0.00 0.01 0.01 0.00 0.00 0.00 0.01 0.01 0.01 0.01 0.01 0.01 0.01 0.01
MSLP
1010.76 1010.38 1010.09 1009.86 1009.65 1009.46 1009.27 1009.09 1008.95 1008.87 1008.87 1008.97 1009.18 1009.46 1009.81 1010.18 1010.56 1010.92 1011.25 1011.54 1011.81 1012.06 1012.31 1012.58 1012.86 1013.16 1013.47 1013.79 1014.12 1014.43 1014.73 1015.01 1015.26 1015.46 1015.62 1015.71 1015.73 1015.67 1015.54 1015.34 1015.10 1014.85 1014.60
1011.31 1010.89 1010.55 1010.26 1010.00 1009.74 1009.50 1009.27 1009.08 1008.95 1008.89 1008.93 1009.06 1009.27 1009.54 1009.84 1010.16 1010.47 1010.75 1011.02 1011.27 1011.52 1011.76 1012.02 1012.28 1012.56 1012.86 1013.17 1013.50 1013.83 1014.16 1014.50 1014.83 1015.14 1015.41 1015.63 1015.79 1015.86 1015.84 1015.75 1015.58 1015.38 1015.16
1011.79 1011.34 1010.97 1010.63 1010.33 1010.04 1009.76 1009.50 1009.28 1009.12 1009.02 1009.00 1009.06 1009.19 1009.37 1009.57 1009.80 1010.03 1010.25 1010.47 1010.69 1010.91 1011.14 1011.39 1011.65 1011.93 1012.22 1012.53 1012.85 1013.19 1013.54 1013.92 1014.31 1014.70 1015.08 1015.41 1015.69 1015.89 1016.00 1016.01 1015.94 1015.81 1015.65
1012.16 1011.69 1011.28 1010.91 1010.57 1010.26 1009.97 1009.70 1009.48 1009.31 1009.19 1009.13 1009.13 1009.18 1009.25 1009.35 1009.47 1009.59 1009.73 1009.88 1010.05 1010.24 1010.47 1010.71 1010.99 1011.27 1011.57 1011.88 1012.20 1012.55 1012.91 1013.31 1013.73 1014.17 1014.61 1015.04 1015.42 1015.73 1015.95 1016.08 1016.12 1016.08 1015.99
1012.42 1011.90 1011.44 1011.03 1010.67 1010.34 1010.06 1009.81 1009.61 1009.45 1009.34 1009.26 1009.22 1009.19 1009.17 1009.16 1009.15 1009.16 1009.19 1009.26 1009.38 1009.54 1009.75 1010.01 1010.30 1010.61 1010.93 1011.25 1011.58 1011.92 1012.28 1012.67 1013.10 1013.55 1014.03 1014.50 1014.96 1015.36 1015.69 1015.93 1016.07 1016.14 1016.13
1012.55 1011.97 1011.45 1010.99 1010.60 1010.27 1009.99 1009.78 1009.62 1009.51 1009.42 1009.35 1009.27 1009.19 1009.08 1008.96 1008.84 1008.72 1008.65 1008.62 1008.67 1008.80 1009.00 1009.27 1009.59 1009.93 1010.28 1010.63 1010.97 1011.31 1011.65 1012.02 1012.42 1012.86 1013.33 1013.83 1014.32 1014.79 1015.20 1015.54 1015.79 1015.95 1016.04
1012.57 1011.91 1011.31 1010.80 1010.37 1010.04 1009.79 1009.62 1009.52 1009.46 1009.42 1009.37 1009.28 1009.16 1008.98 1008.76 1008.51 1008.28 1008.09 1007.97 1007.95 1008.03 1008.22 1008.50 1008.85 1009.23 1009.62 1009.99 1010.34 1010.68 1011.00 1011.33 1011.69 1012.09 1012.54 1013.02 1013.53 1014.03 1014.51 1014.93 1015.28 1015.55 1015.74
1012.48 1011.73 1011.06 1010.48 1010.03 1009.69 1009.47 1009.35 1009.31 1009.31 1009.33 1009.32 1009.24 1009.08 1008.84 1008.53 1008.18 1007.83 1007.52 1007.30 1007.20 1007.24 1007.41 1007.69 1008.06 1008.47 1008.89 1009.29 1009.66 1009.99 1010.29 1010.58 1010.90 1011.25 1011.65 1012.10 1012.60 1013.13 1013.65 1014.15 1014.59 1014.95 1015.24
1012.30 1011.46 1010.72 1010.10 1009.62 1009.28 1009.09 1009.03 1009.05 1009.13 1009.20 1009.22 1009.15 1008.97 1008.68 1008.29 1007.84 1007.38 1006.97 1006.65 1006.47 1006.45 1006.58 1006.85 1007.22 1007.65 1008.10 1008.51 1008.89 1009.21 1009.50 1009.76 1010.02 1010.33 1010.68 1011.11 1011.59 1012.12 1012.68 1013.23 1013.75 1014.21 1014.59
1012.05 1011.15 1010.36 1009.71 1009.22 1008.90 1008.74 1008.72 1008.81 1008.94 1009.06 1009.11 1009.05 1008.86 1008.51 1008.06 1007.52 1006.97 1006.45 1006.04 1005.78 1005.69 1005.77 1006.01 1006.37 1006.79 1007.24 1007.67 1008.04 1008.36 1008.63 1008.86 1009.09 1009.35 1009.67 1010.07 1010.53 1011.07 1011.64 1012.24 1012.82 1013.36 1013.83
1011.76 1010.84 1010.03 1009.37 1008.89 1008.59 1008.47 1008.50 1008.63 1008.81 1008.97 1009.04 1008.98 1008.76 1008.39 1007.87 1007.27 1006.63 1006.03 1005.53 1005.18 1005.02 1005.04 1005.23 1005.55 1005.95 1006.39 1006.80 1007.17 1007.48 1007.73 1007.95 1008.15 1008.38 1008.67 1009.04 1009.48 1010.01 1010.60 1011.22 1011.84 1012.44 1012.99
1011.48 1010.57 1009.78 1009.14 1008.69 1008.43 1008.35 1008.42 1008.58 1008.79 1008.96 1009.04 1008.98 1008.74 1008.33 1007.77 1007.11 1006.42 1005.75 1005.18 1004.76 1004.52 1004.48 1004.61 1004.87 1005.23 1005.63 1006.02 1006.37 1006.66 1006.90 1007.10 1007.28 1007.49 1007.76 1008.10 1008.52 1009.03 1009.61 1010.23 1010.87 1011.50 1012.09
1011.27 1010.41 1009.67 1009.08 1008.67 1008.45 1008.41 1008.50 1008.69 1008.90 1009.07 1009.15 1009.07 1008.82 1008.39 1007.81 1007.12 1006.39 1005.68 1005.07 1004.59 1004.30 1004.19 1004.26 1004.46 1004.76 1005.11 1005.46 1005.77 1006.04 1006.26 1006.44 1006.61 1006.79 1007.03 1007.34 1007.73 1008.20 1008.75 1009.35 1009.97 1010.59 1011.19
1011.19 1010.39 1009.72 1009.20 1008.85 1008.68 1008.67 1008.78 1008.97 1009.18 1009.34 1009.40 1009.31 1009.04 1008.61 1008.02 1007.34 1006.60 1005.89 1005.26 1004.76 1004.43 1004.27 1004.28 1004.42 1004.65 1004.94 1005.24 1005.51 1005.75 1005.94 1006.09 1006.24 1006.40 1006.60 1006.86 1007.20 1007.62 1008.10 1008.63 1009.19 1009.77 1010.34
1011.25 1010.55 1009.96 1009.51 1009.23 1009.11 1009.12 1009.24 1009.43 1009.62 1009.76 1009.80 1009.70 1009.43 1009.01 1008.45 1007.79 1007.10 1006.41 1005.80 1005.31 1004.97 1004.78 1004.75 1004.83 1005.01 1005.24 1005.48 1005.70 1005.89 1006.04 1006.17 1006.28 1006.40 1006.55 1006.75 1007.02 1007.34 1007.73 1008.16 1008.63 1009.11 1009.60
1011.45 1010.85 1010.36 1010.00 1009.78 1009.71 1009.75 1009.88 1010.05 1010.22 1010.34 1010.37 1010.26 1010.01 1009.62 1009.10 1008.51 1007.87 1007.26 1006.70 1006.25 1005.93 1005.74 1005.68 1005.73 1005.86 1006.03 1006.21 1006.38 1006.52 1006.63 1006.71 1006.77 1006.84 1006.93 1007.05 1007.22 1007.44 1007.70 1008.01 1008.34 1008.70 1009.07
1011.77 1011.27 1010.88 1010.61 1010.46 1010.44 1010.51 1010.64 1010.81 1010.97 1011.07 1011.08 1010.98 1010.76 1010.41 1009.96 1009.45 1008.91 1008.38 1007.90 1007.52 1007.24 1007.07 1007.01 1007.04 1007.13 1007.25 1007.39 1007.50 1007.59 1007.65 1007.67 1007.68 1007.68 1007.69 1007.73 1007.79 1007.89 1008.02 1008.18 1008.37 1008.58 1008.81
1012.13 1011.74 1011.46 1011.28 1011.21 1011.25 1011.35 1011.51 1011.67 1011.82 1011.91 1011.93 1011.84 1011.65 1011.36 1010.99 1010.57 1010.12 1009.70 1009.32 1009.02 1008.80 1008.67 1008.62 1008.64 1008.70 1008.78 1008.87 1008.93 1008.97 1008.97 1008.95 1008.90 1008.83 1008.77 1008.71 1008.67 1008.65 1008.65 1008.67 1008.71 1008.78 1008.87
1012.49 1012.22 1012.04 1011.97 1011.99 1012.09 1012.24 1012.42 1012.60 1012.75 1012.85 1012.87 1012.80 1012.64 1012.41 1012.11 1011.78 1011.44 1011.12 1010.83 1010.61 1010.45 1010.37 1010.34 1010.35 1010.40 1010.45 1010.49 1010.51 1010.50 1010.45 1010.37 1010.26 1010.14 1010.01 1009.87 1009.74 1009.62 1009.52 1009.42 1009.35 1009.29 1009.26
1012.80 1012.65 1012.60 1012.64 1012.76 1012.94 1013.15 1013.36 1013.56 1013.72 1013.82 1013.85 1013.80 1013.68 1013.50 1013.27 1013.02 1012.76 1012.52 1012.32 1012.17 1012.07 1012.01 1012.00 1012.02 1012.04 1012.06 1012.06 1012.04 1011.98 1011.89 1011.77 1011.62 1011.45 1011.27 1011.08 1010.89 1010.70 1010.52 1010.35 1010.20 1010.06 1009.94
1013.06 1013.04 1013.12 1013.28 1013.50 1013.76 1014.03 1014.30 1014.52 1014.70 1014.81 1014.85 1014.81 1014.71 1014.56 1014.38 1014.19 1014.00 1013.82 1013.68 1013.58 1013.52 1013.48 1013.48 1013.48 1013.48 1013.47 1013.44 1013.38 1013.28 1013.15 1012.99 1012.81 1012.61 1012.41 1012.19 1011.98 1011.77 1011.57 1011.37 1011.18 1011.00 1010.84
1013.29 1013.41 1013.61 1013.89 1014.21 1014.55 1014.89 1015.19 1015.45 1015.64 1015.75 1015.80 1015.77 1015.68 1015.56 1015.40 1015.24 1015.09 1014.96 1014.85 1014.78 1014.73 1014.70 1014.69 1014.67 1014.65 1014.60 1014.53 1014.43 1014.30 1014.14 1013.96 1013.76 1013.56 1013.35 1013.15 1012.94 1012.74 1012.55 1012.37 1012.19 1012.02 1011.87
1013.53 1013.77 1014.10 1014.48 1014.89 1015.31 1015.70 1016.03 1016.31 1016.51 1016.63 1016.67 1016.64 1016.56 1016.44 1016.30 1016.15 1016.02 1015.90 1015.81 1015.74 1015.69 1015.65 1015.62 1015.57 1015.51 1015.43 1015.32 1015.19 1015.03 1014.85 1014.66 1014.46 1014.26 1014.07 1013.89 1013.73 1013.57 1013.43 1013.29 1013.17 1013.04 1012.92
1013.82 1014.17 1014.59 1015.06 1015.54 1016.00 1016.43 1016.79 1017.07 1017.28 1017.39 1017.43 1017.39 1017.31 1017.19 1017.05 1016.91 1016.78 1016.67 1016.58 1016.50 1016.44 1016.38 1016.32 1016.25 1016.15 1016.04 1015.90 1015.73 1015.55 1015.35 1015.15 1014.96 1014.78 1014.62 1014.48 1014.36 1014.27 1014.18 1014.11 1014.05 1013.99 1013.93
1014.17 1014.60 1015.08 1015.60 1016.12 1016.62 1017.06 1017.43 1017.72 1017.91 1018.03 1018.06 1018.02 1017.94 1017.82 1017.69 1017.56 1017.43 1017.32 1017.22 1017.14 1017.07 1016.99 1016.90 1016.80 1016.67 1016.52 1016.35 1016.16 1015.96 1015.76 1015.56 1015.38 1015.22 1015.09 1014.99 1014.92 1014.87 1014.85 1014.84 1014.84 1014.83 1014.83
1014.57 1015.03 1015.55 1016.09 1016.62 1017.12 1017.56 1017.93 1018.21 1018.41 1018.52 1018.55 1018.53 1018.45 1018.35 1018.24 1018.12 1018.01 1017.90 1017.81 1017.72 1017.64 1017.55 1017.44 1017.32 1017.17 1017.00 1016.81 1016.61 1016.39 1016.19 1015.99 1015.82 1015.67 1015.56 1015.49 1015.45 1015.44 1015.46 1015.49 1015.54 1015.58 1015.61
Thickness
5666 5664 5662 5660 5658 5656 5654 5652 5651 5650 5648 5645 5643 5641 5639 5637 5635 5632 5630 5629 5627 5626 5625 5625 5624 5624 5623 5622 5621 5620 5618 5617 5615 5618 5620 5622 5624 5625 5626 5628 5630 5631 5634
5663 5660 5658 5656 5654 5651 5650 5648 5647 5645 5643 5641 5638 5635 5633 5631 5629 5627 5625 5623 5622 5620 5620 5619 5618 5618 5617 5616 5616 5615 5614 5614 5613 5612 5614 5616 5618 5619 5621 5622 5624 5627 5628
5660 5656 5653 5651 5649 5647 5646 5644 5642 5640 5638 5635 5633 5629 5627 5625 5623 5622 5621 5619 5617 5616 5615 5614 5613 5612 5611 5611 5610 5610 5610 5610 5609 5608 5609 5610 5611 5613 5614 5616 5618 5620 5623
5655 5652 5649 5647 5645 5644 5642 5640 5637 5635 5633 5630 5627 5625 5622 5620 5618 5617 5616 5614 5612 5611 5610 5609 5608 5607 5607 5606 5606 5605 5605 5604 5604 5604 5604 5604 5604 5606 5607 5608 5610 5613 5616
5650 5647 5645 5643 5641 5639 5637 5634 5632 5630 5628 5625 5622 5619 5617 5615 5614 5612 5610 5608 5605 5604 5604 5603 5603 5604 5604 5603 5602 5601 5600 5599 5598 5598 5598 5598 5598 5598 5599 5601 5603 5606 5609
5645 5642 5640 5638 5635 5633 5631 5628 5626 5624 5622 5619 5616 5614 5611 5611 5610 5608 5605 5602 5600 5598 5597 5597 5598 5598 5598 5598 5599 5598 5597 5596 5593 5592 5592 5592 5594 5594 5595 5596 5596 5597 5600
5640 5638 5635 5633 5630 5628 5626 5622 5619 5617 5615 5612 5610 5608 5606 5605 5605 5604 5601 5597 5594 5593 5592 5591 5592 5593 5592 5591 5592 5593 5593 5593 5593 5591 5589 5590 5590 5591 5590 5590 5591 5592 5594
5634 5632 5630 5627 5624 5622 5619 5616 5613 5610 5608 5605 5603 5601 5600 5600 5600 5599 5596 5592 5589 5588 5587 5586 5585 5585 5586 5585 5585 5585 5585 5586 5587 5587 5587 5588 5588 5589 5588 5589 5589 5588 5589
5627 5625 5623 5620 5617 5614 5612 5609 5607 5604 5601 5599 5597 5595 5593 5592 5593 5592 5589 5585 5583 5582 5582 5581 5580 5580 5581 5581 5578 5577 5578 5579 5581 5581 5582 5583 5584 5585 5584 5582 5581 5580 5580
5621 5620 5617 5614 5611 5608 5605 5603 5600 5597 5594 5592 5590 5588 5586 5584 5585 5584 5582 5579 5576 5575 5574 5574 5574 5574 5575 5574 5572 5571 5570 5572 5573 5574 5574 5575 5576 5577 5577 5577 5576 5574 5573
5615 5613 5610 5607 5605 5602 5599 5596 5593 5589 5586 5584 5581 5579 5578 5577 5577 5576 5575 5573 5571 5568 5567 5567 5567 5568 5568 5567 5566 5565 5566 5567 5566 5565 5565 5566 5568 5568 5569 5570 5570 5569 5568
5607 5604 5602 5599 5598 5595 5591 5588 5585 5582 5578 5575 5571 5569 5569 5568 5568 5567 5567 5566 5565 5562 5561 5560 5560 5560 5560 5560 5559 5559 5560 5559 5557 5557 5557 5557 5559 5560 5561 5562 5562 5562 5563
5597 5594 5592 5590 5588 5586 5582 5579 5576 5573 5570 5567 5564 5561 5559 5559 5558 5559 5558 5557 5556 5554 5553 5553 5553 5553 5552 5551 5550 5550 5550 5548 5548 5548 5549 5550 5552 5553 5553 5553 5553 5553 5553
5588 5585 5583 5580 5578 5576 5574 5572 5568 5565 5562 5559 5556 5553 5551 5550 5549 5548 5548 5547 5546 5545 5544 5543 5543 5543 5542 5541 5541 5540 5540 5540 5539 5540 5542 5544 5545 5545 5544 5544 5544 5543 5542
5580 5577 5574 5571 5568 5566 5563 5561 5560 5557 5555 5552 5549 5546 5544 5542 5541 5541 5540 5538 5537 5536 5535 5533 5531 5530 5530 5530 5529 5529 5530 5530 5530 5531 5533 5534 5535 5535 5535 5535 5535 5534 5533
5571 5568 5565 5563 5560 5557 5554 5551 5550 5549 5547 5545 5543 5540 5537 5536 5534 5533 5532 5531 5530 5528 5525 5522 5520 5520 5519 5519 5519 5519 5519 5520 5521 5522 5523 5524 5525 5526 5526 5526 5526 5525 5525
5563 5561 5558 5555 5552 5549 5546 5542 5539 5537 5536 5534 5533 5531 5529 5527 5526 5524 5523 5521 5520 5518 5515 5512 5511 5510 5509 5509 5509 5509 5509 5509 5510 5511 5512 5513 5514 5515 5515 5516 5516 5515 5515
5555 5553 5550 5546 5544 5541 5537 5534 5531 5528 5525 5523 5522 5521 5520 5518 5516 5515 5513 5510 5508 5507 5505 5503 5502 5501 5500 5499 5500 5500 5499 5499 5500 5501 5501 5502 5502 5503 5503 5503 5504 5504 5504
5546 5543 5540 5537 5535 5532 5529 5525 5522 5519 5516 5513 5511 5510 5509 5508 5506 5504 5503 5500 5498 5496 5495 5493 5493 5492 5491 5490 5491 5491 5490 5490 5490 5490 5490 5491 5492 5492 5492 5492 5492 5493 5493
5537 5535 5532 5528 5525 5522 5519 5516 5513 5510 5507 5504 5502 5500 5499 5497 5494 5493 5491 5490 5489 5487 5486 5484 5483 5483 5483 5482 5481 5481 5480 5480 5480 5480 5481 5481 5481 5481 5481 5481 5482 5482 5481
5528 5526 5524 5519 5515 5513 5510 5507 5504 5501 5499 5496 5494 5493 5491 5488 5486 5484 5482 5481 5480 5479 5478 5476 5475 5474 5473 5473 5472 5471 5471 5471 5470 5470 5470 5470 5470 5471 5471 5471 5471 5471 5471
5519 5517 5514 5511 5508 5505 5502 5499 5496 5493 5490 5488 5485 5484 5482 5479 5477 5475 5474 5473 5472 5471 5470 5468 5467 5466 5465 5464 5464 5462 5462 5461 5461 5461 5461 5460 5461 5460 5460 5460 5460 5460 5460
5511 5508 5505 5503 5500 5498 5494 5491 5488 5485 5482 5480 5477 5475 5473 5471 5469 5467 5466 5465 5464 5462 5461 5460 5459 5457 5456 5456 5455 5454 5454 5453 5453 5453 5452 5452 5451 5451 5451 5450 5450 5450 5450
5502 5500 5497 5494 5491 5488 5485 5482 5479 5476 5474 5471 5469 5466 5464 5462 5460 5458 5457 5456 5455 5453 5452 5451 5450 5449 5448 5448 5447 5446 5446 5445 5445 5444 5444 5443 5442 5442 5442 5441 5441 5441 5441
5494 5491 5488 5485 5482 5479 5476 5474 5471 5468 5466 5463 5461 5458 5456 5454 5453 5451 5449 5447 5446 5445 5444 5443 5442 5441 5441 5440 5439 5439 5438 5438 5437 5437 5436 5435 5434 5433 5433 5432 5432 5431 5431
5485 5483 5479 5476 5473 5471 5468 5465 5463 5460 5457 5455 5453 5450 5448 5446 5444 5443 5441 5440 5438 5437 5436 5435 5435 5434 5434 5433 5432 5431 5431 5431 5430 5429 5428 5427 5426 5425 5424 5424 5424 5423 5423